Weather in Klimovo

Russia / Chuvash Republic     59°11′42″N   34°41′19″E
temp.,
°C
wind,
m/s
gust,
m/s
humid.,
%
clouds,
%
prec.,
mm/h
press.,
hPa
HPBL,
m
18 april, sun
sun1800:00+5ne3118211 0.0 1029321
03:00+3ne39895 0.0 1029201
06:00+2ne310865 0.0 1029245
09:00+8ene485814 0.0 1028543
12:00+12ene464268 0.0 10281653
15:00+13ene5741100 0.0 10281803
18:00+10ene5753100 0.0 10281112
21:00+6ne41171100 0.0 1030525
19 april, mon
mon1900:00+5ene3977100 0.0 1030539
03:00+2ene38868 0.0 1031262
06:00+1ene39854 0.0 1031302
09:00+5e47595 0.0 1031744
12:00+8e56405 0.0 10311440
15:00+9e46345 0.0 10301670
18:00+9e46395 0.0 10291709
21:00+3ene27625 0.0 1030149
20 april, tue
tue2000:00+1ene210737 0.0 1030207
03:000e29825 0.0 1029222
06:00−1e39811 0.0 1029250
09:00+5e49478 0.0 1028886
12:00+8ese5838100 0.0 10251557
15:00+7ese595389 0.0 10241411
18:00+6ese4106794 0.0 10221083
21:00+5ese41071100 0.0 1021584
21 april, wed
wed2100:00+4ese31189100 0.0 1018792
03:00+4ene3978100 0.3 1015807
06:00+3ene41170100 0.0 1011739
09:00+1ene51295100 1.7 1008757
12:00+3e51088100 1.1 1005890
15:00+2e31098100 1.9 1003476
18:00+1ene3798100 1.8 1002314
21:00+1ene13100100 2.9 1001158
22 april, thu
thu2200:00+1w2499100 0.6 1001197
03:00+1wsw4998100 1.8 1003689
06:000wsw4997100 0.5 1006735
09:00+2wsw4887100 0.6 1009980
12:00+5sw378287 0.1 1011995
15:00+7sw2676100 0.1 1012642
18:00+9se127578 0.1 101395
21:00+4sse28965 0.1 1014148